Regional Weather Roundup
Issued by NWS

Home | Current Version | Previous Version | Graphics & Text | Print | Product List | Glossary On
Versions: 1 2 3 4 5 6 7 8 9 10 11 12 13 14 15 16 17 18 19 20 21 22 23 24 25 26 27 28 29 30 31 32 33 34 35 36 37 38 39 40 41 42 43 44 45 46 47 48 49 50
000
ASUS43 KLOT 231610
RWRIL

ILLINOIS REGIONAL WEATHER ROUNDUP
NATIONAL WEATHER SERVICE CHICAGO/ROMEOVILLE IL
1100 AM CDT SAT AUG 23 2014

NOTE: "FAIR" INDICATES FEW OR NO CLOUDS BELOW 12,000 FEET WITH NO
SIGNIFICANT WEATHER AND/OR OBSTRUCTIONS TO VISIBILITY.

* THESE STATIONS ARE NOT UNDER NWS QUALITY CONTROL. THEY ALSO MAY NOT
  REPORT WEATHER SUCH AS PRECIPITATION OR FOG.

ILZ001-002-007-009-015-016-024-231700-
NORTHWEST ILLINOIS

CITY           SKY/WX    TMP DP  RH WIND       PRES   REMARKS
MOLINE         TSTM      72  69  90 NE3       29.97F
STERLING*      CLOUDY    81  75  83 CALM      30.00R HX  86
SAVANNA*       TSTM      73  69  87 SW3G13    30.02R
$$

ILZ003-004-008-010-011-017-018-231700-
NORTH CENTRAL ILLINOIS

CITY           SKY/WX    TMP DP  RH WIND       PRES   REMARKS
ROCKFORD       CLOUDY    79  74  84 SE5       30.02R HX  82
FREEPORT*      CLOUDY    78  76  94 SE5       30.03S HX  80
ROCHELLE*      CLOUDY    80  74  81 CALM      30.01S HX  84
DE KALB*       CLOUDY    79  74  84 E7        30.02S HX  82
PERU*          CLOUDY    82  75  81 SE6       30.01R HX  88
$$

ILZ005-006-012>014-019>023-231700-
NORTHEAST ILLINOIS

CITY           SKY/WX    TMP DP  RH WIND       PRES   REMARKS
CHICAGO-OHARE  CLOUDY    82  74  76 S5        30.00R HX  88
CHICAGO-MIDWAY CLOUDY    85  73  67 S5        30.00R HX  91
AURORA         CLOUDY    84  74  71 S6        30.01R HX  91
LANSING*       PTSUNNY   83  73  72 SE7       30.00R HX  88
JOLIET*        PTSUNNY   83  73  72 S3        30.01R HX  89
WAUKEGAN       CLOUDY    77  71  82 CALM      30.01R
DUPAGE AIRPORT CLOUDY    83  73  72 SE3       30.01R HX  89
KANKAKEE*      MOSUNNY   84  75  73 SE6       30.01S HX  92
WHEELING       CLOUDY    83  73  72 NE3       30.02R HX  89
MORRIS*        PTSUNNY   84  75  75 SE5       30.00S HX  91
ROMEOVILLE*    PTSUNNY   83  74  74 CALM      30.01R HX  89
NORTHERLY ISL    N/A     74  72  93 N5          N/A
$$

LMZ740>746-231700-
SOUTHERN LAKE MICHIGAN

STATION/POSITION SKY/WX   TEMP    WIND        PRES    VSBY  WAVE
                          AIR SEA DIR/SP/G                  HT/PER
                          (F)     (DEG/KT/KT) (MB)    (MI)  (FT/S)
SOUTHERN BUOY              69 69  100/ 12/ 12 1016.4R         1/ 3
WAUKEGAN HARBOR            71      40/  5/  6   N/A
HARRISON CRIB              72      20/  3/  4   N/A
BURNHAM HARBOR             75      30/  4       N/A
CALUMET HARBOR             77      20/  5/  5 1014.9R
MICHIGAN CITY              74      20/  6/  7   N/A
MICHIGAN CITY 6N           74 73   40/  4/  6   N/A           0
ST. JOSEPH                 75 73  110/  8/ 10   N/A           0
$$

ILZ025>027-034>036-040-047-049-050-058-095>099-231700-
WEST-CENTRAL ILLINOIS

CITY           SKY/WX    TMP DP  RH WIND       PRES   REMARKS
QUINCY         MOSUNNY   83  71  67 N8        29.97F HX  87
GALESBURG*     CLOUDY    71  70  96 NW6       29.97F
MACOMB*        CLOUDY    75  73  92 N3        30.00R
JACKSONVILLE*  MOSUNNY   87  78  74 W8        29.98R HX 101
PITTSFIELD*    MOSUNNY   87  75  65 NW8       29.98S HX  96
$$

ILZ028>032-037-038-041>044-048-051>054-059>061-231700-
CENTRAL ILLINOIS

CITY           SKY/WX    TMP DP  RH WIND       PRES   REMARKS
PONTIAC        PTSUNNY   84  79  84 E5        29.99F HX  96
DECATUR        MOSUNNY   84  79  85 E5        29.99R HX  96
PEORIA         CLOUDY    77  69  76 N15G26    30.01R THUNDER
LACON*         CLOUDY    79  75  87 W22G32    30.03R HX  84
LINCOLN*       MOSUNNY   87  78  73 SE3       29.94S HX 100
SPRINGFIELD    MOSUNNY   87  80  79 VRB3      29.96F HX 103
TAYLORVILLE    MOSUNNY   84  77  79 NW5       29.97S HX  94
$$

ILZ033-039-045-046-055>057-062-063-231700-
EAST-CENTRAL ILLINOIS

CITY           SKY/WX    TMP DP  RH WIND       PRES   REMARKS
CHAMPAIGN      CLOUDY    81  78  91 SE6       30.00R FOG     HX  89
DANVILLE*      RAIN      82  77  85 SE6       29.97S HX  90
RANTOUL*       MOSUNNY   85  75  74 SE6       30.00S HX  93
MATTOON        CLOUDY    82  77  84 CALM      29.98S HAZE    HX  90
PARIS*         PTSUNNY   83  81  93 CALM      30.00S HX  96
$$

ILZ079-100>102-231700-
SOUTHWEST ILLINOIS

CITY           SKY/WX    TMP DP  RH WIND       PRES   REMARKS
ALTON          SUNNY     88  81  79 W9        29.97S HX 105
BELLEVILLE     SUNNY     91  76  61 VRB5      29.96S HX 103
CAHOKIA*       SUNNY     93  72  50 VRB6      29.96S HX 101
SPARTA*        SUNNY     87  77  72 W6        29.99S HX  99
$$

ILZ064>066-069>071-074>076-080>082-084>086-088>090-092>094-231700-
SOUTH-CENTRAL ILLINOIS

CITY           SKY/WX    TMP DP  RH WIND       PRES   REMARKS
CARBONDALE     MOSUNNY   89  77  67 W6        29.98S HX 101
CAIRO*         SUNNY     90  78  68 CALM      29.99F HX 105
MARION         PTSUNNY   90  77  66 NW8       30.00R HX 102
MT. VERNON     MOSUNNY   88  75  66 W7        29.98S HX  97
CENTRALIA*     MOSUNNY   95  76  53 NW8       29.98S HX 109
SALEM*         SUNNY     88  78  73 W6        29.98R HX 102
METROPOLIS*    LGT RAIN  83  75  78 SW3       29.99S HX  90
$$

ILZ067-068-072-073-078-083-087-091-231700-
SOUTHEAST ILLINOIS

CITY           SKY/WX    TMP DP  RH WIND       PRES   REMARKS
LAWRENCEVILLE  MOSUNNY   86  78  77 CALM      29.97S HX  98
FLORA*         SUNNY     86  78  78 CALM      29.97S HX  99
FAIRFIELD*     MOSUNNY   88  81  79 SW3       29.97S HX 105
HARRISBURG*    PTSUNNY   82  79  88 CALM      29.99S HX  92
ROBINSON*      MOSUNNY   87  80  78 CALM      29.98S HX 102
CARMI*         SUNNY     90  81  74 SW7       29.97S HX 108
$$

ABBREVIATIONS USED IN REMARKS
   TC - TEMPERATURE IN CELSIUS
  WCI - WIND CHILL INDEX
   HX - HEAT INDEX
  VSB - VISIBILITY
$$




USA.gov is the U.S. government's official web portal to all federal, state and local government web resources and services.